| time (UTC) | temp C | wind direction | speed KPH | gust KPH | rain 1hr cm | rain 24hr cm | rain mn cm | humidity % | barometer mb |
| 20260507191918 | 19 | 268 | 16.1 | 29.0 | 0.00 | 0.00 | 0.00 | 38 | 1009.0 |
| 20260507191414 | 18 | 256 | 14.5 | 27.4 | 0.00 | 0.00 | 0.00 | 37 | 1009.1 |
| 20260507190911 | 20 | 238 | 20.9 | 22.5 | 0.00 | 0.00 | 0.00 | 36 | 1009.1 |
| 20260507190409 | 19 | 262 | 19.3 | 37.0 | 0.00 | 0.00 | 0.00 | 37 | 1009.3 |
| 20260507185908 | 19 | 246 | 20.9 | 32.2 | 0.00 | 0.00 | 0.00 | 37 | 1009.4 |
| 20260507185404 | 18 | 248 | 22.5 | 43.5 | 0.00 | 0.00 | 0.00 | 39 | 1009.4 |
| 20260507184901 | 18 | 258 | 22.5 | 32.2 | 0.00 | 0.00 | 0.00 | 37 | 1009.3 |
| 20260507184400 | 18 | 265 | 19.3 | 32.2 | 0.00 | 0.00 | 0.00 | 39 | 1009.4 |
| 20260507183856 | 17 | 273 | 20.9 | 40.2 | 0.00 | 0.00 | 0.00 | 39 | 1009.3 |
| 20260507183353 | 18 | 281 | 19.3 | 22.5 | 0.00 | 0.00 | 0.00 | 37 | 1009.4 |
| 20260507182850 | 17 | 281 | 27.4 | 32.2 | 0.00 | 0.00 | 0.00 | 36 | 1009.2 |
| 20260507182346 | 18 | 309 | 14.5 | 25.7 | 0.00 | 0.00 | 0.00 | 34 | 1009.2 |
| 20260507181843 | 18 | 305 | 19.3 | 32.2 | 0.00 | 0.00 | 0.00 | 33 | 1009.3 |
| 20260507181338 | 19 | 290 | 24.1 | 32.2 | 0.00 | 0.00 | 0.00 | 32 | 1009.2 |
| 20260507180836 | 20 | 267 | 22.5 | 35.4 | 0.00 | 0.00 | 0.00 | 30 | 1009.2 |
| 20260507180332 | 20 | 262 | 16.1 | 30.6 | 0.00 | 0.00 | 0.00 | 31 | 1009.1 |
| 20260507175828 | 20 | 282 | 19.3 | 33.8 | 0.00 | 0.00 | 0.00 | 31 | 1009.1 |
| 20260507175325 | 19 | 303 | 17.7 | 33.8 | 0.00 | 0.00 | 0.00 | 33 | 1009.3 |
| 20260507174822 | 20 | 285 | 11.3 | 27.4 | 0.00 | 0.00 | 0.00 | 31 | 1009.2 |
| 20260507174320 | 19 | 288 | 17.7 | 25.7 | 0.00 | 0.00 | 0.00 | 32 | 1009.6 |
| 20260507173817 | 19 | 288 | 8.0 | 20.9 | 0.00 | 0.00 | 0.00 | 31 | 1009.3 |
| 20260507173314 | 18 | 291 | 11.3 | 27.4 | 0.00 | 0.00 | 0.00 | 32 | 1009.4 |
| 20260507172811 | 19 | 319 | 12.9 | 24.1 | 0.00 | 0.00 | 0.00 | 32 | 1009.4 |
| 20260507172308 | 19 | 294 | 12.9 | 25.7 | 0.00 | 0.00 | 0.00 | 32 | 1009.4 |
| 20260507171803 | 19 | 289 | 22.5 | 33.8 | 0.00 | 0.00 | 0.00 | 31 | 1009.2 |
| 20260507171301 | 18 | 312 | 25.7 | 30.6 | 0.00 | 0.00 | 0.00 | 32 | 1009.5 |
| 20260507170757 | 18 | 338 | 11.3 | 29.0 | 0.00 | 0.00 | 0.00 | 32 | 1009.5 |
| 20260507170254 | 18 | 298 | 27.4 | 32.2 | 0.00 | 0.00 | 0.00 | 32 | 1009.4 |
| 20260507165750 | 18 | 273 | 17.7 | 19.3 | 0.00 | 0.00 | 0.00 | 33 | 1009.4 |
| 20260507165246 | 18 | 274 | 20.9 | 24.1 | 0.00 | 0.00 | 0.00 | 33 | 1009.4 |
| 20260507164742 | 18 | 293 | 24.1 | 33.8 | 0.00 | 0.00 | 0.00 | 34 | 1009.4 |
| 20260507164239 | 17 | 277 | 17.7 | 29.0 | 0.00 | 0.00 | 0.00 | 34 | 1009.7 |
| 20260507163736 | 17 | 269 | 17.7 | 30.6 | 0.00 | 0.00 | 0.00 | 34 | 1009.4 |
| 20260507163234 | 18 | 281 | 19.3 | 27.4 | 0.00 | 0.00 | 0.00 | 34 | 1009.9 |
| 20260507162730 | 18 | 289 | 19.3 | 20.9 | 0.00 | 0.00 | 0.00 | 33 | 1009.6 |
| 20260507162226 | 18 | 285 | 14.5 | 35.4 | 0.00 | 0.00 | 0.00 | 32 | 1009.6 |
| 20260507161723 | 18 | 305 | 20.9 | 32.2 | 0.00 | 0.00 | 0.00 | 31 | 1009.3 |
| 20260507161219 | 18 | 290 | 14.5 | 27.4 | 0.00 | 0.00 | 0.00 | 32 | 1009.7 |
| 20260507160715 | 18 | 303 | 17.7 | 33.8 | 0.00 | 0.00 | 0.00 | 32 | 1009.7 |
| 20260507160212 | 18 | 285 | 19.3 | 32.2 | 0.00 | 0.00 | 0.00 | 32 | 1009.9 |
| 20260507155708 | 18 | 303 | 14.5 | 25.7 | 0.00 | 0.00 | 0.00 | 33 | 1009.7 |
| 20260507155204 | 18 | 288 | 12.9 | 27.4 | 0.00 | 0.00 | 0.00 | 33 | 1009.7 |
| 20260507154701 | 18 | 290 | 24.1 | 29.0 | 0.00 | 0.00 | 0.00 | 33 | 1009.9 |
| 20260507154159 | 17 | 295 | 24.1 | 27.4 | 0.00 | 0.00 | 0.00 | 34 | 1009.9 |
| 20260507153655 | 17 | 273 | 20.9 | 27.4 | 0.00 | 0.00 | 0.00 | 34 | 1009.9 |
| 20260507153151 | 17 | 284 | 16.1 | 35.4 | 0.00 | 0.00 | 0.00 | 34 | 1010.1 |
| 20260507152648 | 17 | 281 | 20.9 | 35.4 | 0.00 | 0.00 | 0.00 | 34 | 1010.2 |
| 20260507152144 | 17 | 276 | 32.2 | 35.4 | 0.00 | 0.00 | 0.00 | 34 | 1010.2 |
| 20260507151640 | 16 | 273 | 27.4 | 27.4 | 0.00 | 0.00 | 0.00 | 37 | 1010.1 |
| 20260507151137 | 16 | 283 | 17.7 | 29.0 | 0.00 | 0.00 | 0.00 | 38 | 1010.2 |
| 20260507150634 | 16 | 296 | 16.1 | 24.1 | 0.00 | 0.00 | 0.00 | 38 | 1010.3 |
| 20260507150131 | 16 | 286 | 14.5 | 27.4 | 0.00 | 0.00 | 0.00 | 38 | 1010.8 |
| 20260507145626 | 15 | 286 | 17.7 | 24.1 | 0.00 | 0.00 | 0.00 | 40 | 1010.7 |
| 20260507145124 | 15 | 297 | 20.9 | 25.7 | 0.00 | 0.00 | 0.00 | 40 | 1010.5 |
| 20260507144620 | 13 | 285 | 12.9 | 24.1 | 0.00 | 0.00 | 0.00 | 43 | 1010.8 |
| 20260507144119 | 13 | 294 | 12.9 | 27.4 | 0.00 | 0.00 | 0.00 | 44 | 1010.9 |
| 20260507143615 | 13 | 291 | 12.9 | 20.9 | 0.00 | 0.00 | 0.00 | 43 | 1010.7 |
| 20260507143112 | 13 | 276 | 9.7 | 22.5 | 0.00 | 0.00 | 0.00 | 42 | 1010.7 |
| 20260507142607 | 13 | 274 | 12.9 | 27.4 | 0.00 | 0.00 | 0.00 | 42 | 1010.8 |
| 20260507142105 | 13 | 286 | 9.7 | 25.7 | 0.00 | 0.00 | 0.00 | 42 | 1011.0 |
| 20260507141601 | 13 | 272 | 16.1 | 24.1 | 0.00 | 0.00 | 0.00 | 43 | 1010.9 |
| 20260507141057 | 12 | 255 | 9.7 | 14.5 | 0.00 | 0.00 | 0.00 | 45 | 1010.9 |
| 20260507140554 | 12 | 276 | 19.3 | 27.4 | 0.00 | 0.00 | 0.00 | 45 | 1010.9 |
| 20260507140051 | 12 | 286 | 8.0 | 25.7 | 0.00 | 0.00 | 0.00 | 45 | 1011.1 |
| 20260507135548 | 12 | 276 | 11.3 | 22.5 | 0.00 | 0.00 | 0.00 | 46 | 1010.9 |
| 20260507135046 | 12 | 285 | 16.1 | 24.1 | 0.00 | 0.00 | 0.00 | 46 | 1010.9 |
| 20260507134542 | 11 | 296 | 17.7 | 25.7 | 0.00 | 0.00 | 0.00 | 48 | 1011.0 |
| 20260507134038 | 11 | 301 | 12.9 | 19.3 | 0.00 | 0.00 | 0.00 | 49 | 1011.1 |
| 20260507133534 | 10 | 294 | 9.7 | 24.1 | 0.00 | 0.00 | 0.00 | 51 | 1011.2 |
| 20260507133032 | 10 | 307 | 11.3 | 22.5 | 0.00 | 0.00 | 0.00 | 51 | 1010.8 |
| 20260507132528 | 10 | 291 | 6.4 | 22.5 | 0.00 | 0.00 | 0.00 | 54 | 1011.0 |
| 20260507132025 | 9 | 315 | 6.4 | 11.3 | 0.00 | 0.00 | 0.00 | 54 | 1011.1 |
| 20260507131522 | 8 | 309 | 9.7 | 17.7 | 0.00 | 0.00 | 0.00 | 57 | 1011.3 |
| 20260507131019 | 8 | 316 | 3.2 | 6.4 | 0.00 | 0.00 | 0.00 | 62 | 1011.3 |
| 20260507130516 | 7 | 332 | 3.2 | 4.8 | 0.00 | 0.00 | 0.00 | 62 | 1011.2 |
| 20260507130014 | 8 | 355 | 3.2 | 6.4 | 0.00 | 0.00 | 0.00 | 61 | 1011.4 |
| 20260507125512 | 8 | 296 | 4.8 | 6.4 | 0.00 | 0.00 | 0.00 | 60 | 1011.3 |
| 20260507125011 | 8 | 301 | 6.4 | 11.3 | 0.00 | 0.00 | 0.00 | 60 | 1011.3 |
| 20260507124506 | 7 | 282 | 9.7 | 12.9 | 0.00 | 0.00 | 0.00 | 59 | 1011.2 |
| 20260507124004 | 7 | 297 | 6.4 | 12.9 | 0.00 | 0.00 | 0.00 | 59 | 1011.3 |
| 20260507123501 | 8 | 303 | 9.7 | 14.5 | 0.00 | 0.00 | 0.00 | 58 | 1011.4 |
| 20260507122957 | 7 | 287 | 9.7 | 14.5 | 0.00 | 0.00 | 0.00 | 60 | 1011.4 |
| 20260507122453 | 7 | 295 | 11.3 | 14.5 | 0.00 | 0.00 | 0.00 | 61 | 1011.7 |
| 20260507121949 | 7 | 299 | 17.7 | 17.7 | 0.00 | 0.00 | 0.00 | 61 | 1011.6 |
| 20260507121445 | -17 | 299 | 6.4 | 12.9 | 0.00 | 0.00 | 0.00 | 1011.7 | |
| 20260507120941 | -17 | 291 | 11.3 | 17.7 | 0.00 | 0.00 | 0.00 | 1011.7 | |
| 20260507120438 | -17 | 285 | 12.9 | 16.1 | 0.00 | 0.00 | 0.00 | 1011.4 | |
| 20260507115934 | -17 | 288 | 11.3 | 17.7 | 0.00 | 0.00 | 0.00 | 1011.7 | |
| 20260507115430 | -17 | 277 | 9.7 | 16.1 | 0.00 | 0.00 | 0.00 | 1012.0 | |
| 20260507114927 | -17 | 286 | 14.5 | 14.5 | 0.00 | 0.00 | 0.00 | 1012.0 | |
| 20260507114423 | -17 | 304 | 8.0 | 17.7 | 0.00 | 0.00 | 0.00 | 1012.2 | |
| 20260507113920 | -17 | 317 | 6.4 | 11.3 | 0.00 | 0.00 | 0.00 | 1012.2 | |
| 20260507113417 | -17 | 279 | 12.9 | 16.1 | 0.00 | 0.00 | 0.00 | 1012.1 | |
| 20260507112914 | -17 | 288 | 4.8 | 9.7 | 0.00 | 0.00 | 0.00 | 1012.2 | |
| 20260507112412 | -17 | 286 | 4.8 | 8.0 | 0.00 | 0.00 | 0.00 | 1012.5 | |
| 20260507111909 | -17 | 317 | 4.8 | 8.0 | 0.00 | 0.00 | 0.00 | 1012.5 | |
| 20260507111406 | -17 | 337 | 4.8 | 6.4 | 0.00 | 0.00 | 0.00 | 1012.5 | |
| 20260507110902 | -17 | 272 | 6.4 | 8.0 | 0.00 | 0.00 | 0.00 | 1012.5 | |
| 20260507110358 | -17 | 256 | 3.2 | 3.2 | 0.00 | 0.00 | 0.00 | 1012.6 | |
| 20260507105855 | -17 | 50 | 6.4 | 6.4 | 0.00 | 0.00 | 0.00 | 1012.6 | |
| 20260507105352 | -17 | 196 | 3.2 | 4.8 | 0.00 | 0.00 | 0.00 | 1012.4 | |
| 20260507104849 | -17 | 307 | 9.7 | 9.7 | 0.00 | 0.00 | 0.00 | 1012.5 | |
| 20260507104345 | -17 | 36 | 6.4 | 6.4 | 0.00 | 0.00 | 0.00 | 1012.6 | |
| 20260507103841 | -17 | 337 | 3.2 | 4.8 | 0.00 | 0.00 | 0.00 | 1012.8 | |
| 20260507103338 | -17 | 252 | 4.8 | 8.0 | 0.00 | 0.00 | 0.00 | 1012.8 | |
| 20260507102835 | -17 | 267 | 4.8 | 11.3 | 0.00 | 0.00 | 0.00 | 1012.8 | |
| 20260507102331 | -17 | 271 | 6.4 | 8.0 | 0.00 | 0.00 | 0.00 | 1012.6 | |
| 20260507101827 | -17 | 248 | 6.4 | 9.7 | 0.00 | 0.00 | 0.00 | 1012.7 | |
| 20260507101322 | -17 | 248 | 9.7 | 9.7 | 0.00 | 0.00 | 0.00 | 1012.8 | |
| 20260507100819 | -17 | 273 | 6.4 | 8.0 | 0.00 | 0.00 | 0.00 | 1012.9 | |
| 20260507100317 | -17 | 256 | 4.8 | 11.3 | 0.00 | 0.00 | 0.00 | 1013.1 | |
| 20260507095815 | -17 | 271 | 8.0 | 8.0 | 0.00 | 0.00 | 0.00 | 1012.8 | |
| 20260507095311 | -17 | 280 | 6.4 | 8.0 | 0.00 | 0.00 | 0.00 | 1013.3 | |
| 20260507094808 | -17 | 311 | 6.4 | 8.0 | 0.00 | 0.00 | 0.00 | 1013.0 | |
| 20260507094305 | -17 | 272 | 1.6 | 8.0 | 0.00 | 0.00 | 0.00 | 1013.1 | |
| 20260507093802 | -17 | 262 | 1.6 | 9.7 | 0.00 | 0.00 | 0.00 | 1013.1 | |
| 20260507093301 | -17 | 294 | 4.8 | 9.7 | 0.00 | 0.00 | 0.00 | 1012.8 | |
| 20260507092758 | -17 | 281 | 4.8 | 8.0 | 0.00 | 0.00 | 0.00 | 1013.0 | |
| 20260507092254 | -17 | 329 | 6.4 | 8.0 | 0.00 | 0.00 | 0.00 | 1012.9 | |
| 20260507091751 | -17 | 318 | 8.0 | 8.0 | 0.00 | 0.00 | 0.00 | 1013.1 | |
| 20260507091248 | -17 | 279 | 4.8 | 8.0 | 0.00 | 0.00 | 0.00 | 1013.0 | |
| 20260507090747 | -17 | 273 | 6.4 | 14.5 | 0.00 | 0.00 | 0.00 | 1013.1 | |
| 20260507090244 | -17 | 303 | 3.2 | 9.7 | 0.00 | 0.00 | 0.00 | 1013.0 | |
| 20260507085742 | -17 | 299 | 6.4 | 6.4 | 0.00 | 0.00 | 0.00 | 1013.5 | |
| 20260507085238 | -17 | 267 | 6.4 | 8.0 | 0.00 | 0.00 | 0.00 | 1013.4 | |
| 20260507084736 | -17 | 274 | 3.2 | 4.8 | 0.00 | 0.00 | 0.00 | 1013.3 | |
| 20260507084232 | -17 | 319 | 3.2 | 6.4 | 0.00 | 0.00 | 0.00 | 1013.4 | |
| 20260507083730 | -17 | 298 | 0.0 | 6.4 | 0.00 | 0.00 | 0.00 | 1013.4 | |
| 20260507083226 | -17 | 41 | 3.2 | 4.8 | 0.00 | 0.00 | 0.00 | 1013.4 | |
| 20260507082722 | -17 | 59 | 0.0 | 3.2 | 0.00 | 0.00 | 0.00 | 1013.3 | |
| 20260507082218 | -17 | 7 | 3.2 | 6.4 | 0.00 | 0.00 | 0.00 | 1013.4 | |
| 20260507081715 | -17 | 3 | 0.0 | 8.0 | 0.00 | 0.00 | 0.00 | 1013.4 | |
| 20260507081211 | -17 | 20 | 4.8 | 4.8 | 0.00 | 0.00 | 0.00 | 1013.6 | |
| 20260507080708 | -17 | 15 | 3.2 | 4.8 | 0.00 | 0.00 | 0.00 | 1013.6 | |
| 20260507080204 | -17 | 24 | 3.2 | 4.8 | 0.00 | 0.00 | 0.00 | 1013.6 | |
| 20260507075659 | -17 | 12 | 4.8 | 4.8 | 0.00 | 0.00 | 0.00 | 1013.8 | |
| 20260507075156 | -17 | 301 | 4.8 | 6.4 | 0.00 | 0.00 | 0.00 | 1013.8 | |
| 20260507074652 | -17 | 326 | 4.8 | 14.5 | 0.00 | 0.00 | 0.00 | 1013.8 | |
| 20260507074151 | -17 | 276 | 8.0 | 9.7 | 0.00 | 0.00 | 0.00 | 1013.7 | |
| 20260507073647 | -17 | 255 | 8.0 | 17.7 | 0.00 | 0.00 | 0.00 | 1013.9 | |
| 20260507073143 | -17 | 218 | 12.9 | 19.3 | 0.00 | 0.00 | 0.00 | 1013.9 | |
| 20260507072641 | -17 | 236 | 6.4 | 24.1 | 0.00 | 0.00 | 0.00 | 1013.9 | |
| 20260507072138 | -17 | 226 | 20.9 | 30.6 | 0.00 | 0.00 | 0.00 | 1013.9 | |
| 20260507071636 | -17 | 221 | 22.5 | 29.0 | 0.00 | 0.00 | 0.00 | 1013.9 | |
| 20260507071132 | -17 | 220 | 14.5 | 35.4 | 0.00 | 0.00 | 0.00 | 1013.7 | |
| 20260507070629 | -17 | 219 | 25.7 | 37.0 | 0.00 | 0.00 | 0.00 | 1013.5 | |
| 20260507070126 | -17 | 233 | 16.1 | 30.6 | 0.00 | 0.00 | 0.00 | 1013.9 | |
| 20260507065622 | -17 | 228 | 20.9 | 30.6 | 0.00 | 0.00 | 0.00 | 1014.2 | |
| 20260507065119 | -17 | 239 | 17.7 | 29.0 | 0.00 | 0.00 | 0.00 | 1014.2 | |
| 20260507064617 | -17 | 227 | 16.1 | 33.8 | 0.00 | 0.00 | 0.00 | 1014.2 | |
| 20260507064116 | -17 | 222 | 25.7 | 35.4 | 0.00 | 0.00 | 0.00 | 1014.0 | |
| 20260507063613 | -17 | 219 | 14.5 | 30.6 | 0.00 | 0.00 | 0.00 | 1014.3 | |
| 20260507063110 | -17 | 225 | 27.4 | 38.6 | 0.00 | 0.00 | 0.00 | 1014.4 | |
| 20260507062606 | -17 | 232 | 17.7 | 37.0 | 0.00 | 0.00 | 0.00 | 1014.4 | |
| 20260507062104 | -17 | 231 | 25.7 | 37.0 | 0.00 | 0.00 | 0.00 | 1014.4 | |
| 20260507061601 | -17 | 229 | 20.9 | 40.2 | 0.00 | 0.00 | 0.00 | 1014.3 | |
| 20260507061059 | -17 | 229 | 20.9 | 32.2 | 0.00 | 0.00 | 0.00 | 1014.3 | |
| 20260507060557 | -17 | 215 | 30.6 | 33.8 | 0.00 | 0.00 | 0.00 | 1014.4 | |
| 20260507060053 | -17 | 227 | 24.1 | 38.6 | 0.00 | 0.00 | 0.00 | 1014.4 | |
| 20260507055548 | -17 | 222 | 27.4 | 37.0 | 0.00 | 0.10 | 0.10 | 1014.5 | |
| 20260507055045 | -17 | 225 | 25.7 | 37.0 | 0.00 | 0.10 | 0.10 | 1014.4 | |
| 20260507054541 | -17 | 216 | 19.3 | 35.4 | 0.00 | 0.10 | 0.10 | 1014.2 | |
| 20260507054038 | -17 | 227 | 27.4 | 35.4 | 0.00 | 0.10 | 0.10 | 1013.7 | |
| 20260507053536 | -17 | 224 | 17.7 | 33.8 | 0.00 | 0.10 | 0.10 | 1014.4 | |
| 20260507053035 | -17 | 217 | 29.0 | 32.2 | 0.00 | 0.10 | 0.10 | 1014.4 | |
| 20260507052532 | -17 | 215 | 14.5 | 37.0 | 0.00 | 0.10 | 0.10 | 1014.3 | |
| 20260507052028 | -17 | 218 | 19.3 | 33.8 | 0.00 | 0.10 | 0.10 | 1014.4 | |
| 20260507051526 | -17 | 218 | 17.7 | 32.2 | 0.00 | 0.10 | 0.10 | 1014.6 | |
| 20260507051023 | -17 | 215 | 16.1 | 25.7 | 0.00 | 0.10 | 0.10 | 1014.5 | |
| 20260507050519 | -17 | 227 | 19.3 | 27.4 | 0.00 | 0.10 | 0.10 | 1014.4 | |
| 20260507050016 | -17 | 223 | 14.5 | 25.7 | 0.00 | 0.10 | 0.10 | 1014.6 | |
| 20260507045512 | -17 | 209 | 17.7 | 22.5 | 0.00 | 0.10 | 0.10 | 1014.7 | |
| 20260507045010 | -17 | 203 | 12.9 | 22.5 | 0.00 | 0.10 | 0.10 | 1014.7 | |
| 20260507044506 | -17 | 204 | 19.3 | 30.6 | 0.00 | 0.10 | 0.10 | 1014.8 | |
| 20260507044003 | -17 | 204 | 17.7 | 29.0 | 0.00 | 0.10 | 0.10 | 1014.7 | |
| 20260507043459 | -17 | 220 | 16.1 | 27.4 | 0.00 | 0.10 | 0.10 | 1015.1 | |
| 20260507042955 | -17 | 205 | 17.7 | 22.5 | 0.00 | 0.10 | 0.10 | 1015.0 | |
| 20260507042452 | -17 | 204 | 16.1 | 25.7 | 0.00 | 0.10 | 0.10 | 1014.8 | |
| 20260507041948 | -17 | 206 | 14.5 | 20.9 | 0.00 | 0.10 | 0.10 | 1015.1 | |
| 20260507041445 | -17 | 210 | 11.3 | 22.5 | 0.00 | 0.10 | 0.10 | 1015.1 | |
| 20260507040942 | -17 | 205 | 12.9 | 19.3 | 0.00 | 0.10 | 0.10 | 1015.1 | |
| 20260507040438 | -17 | 194 | 17.7 | 19.3 | 0.00 | 0.10 | 0.10 | 1015.4 | |
| 20260507035934 | -17 | 210 | 9.7 | 20.9 | 0.00 | 0.10 | 0.10 | 1015.4 | |
| 20260507035431 | -17 | 195 | 9.7 | 19.3 | 0.00 | 0.10 | 0.10 | 1015.4 | |
| 20260507034927 | -17 | 208 | 17.7 | 20.9 | 0.00 | 0.10 | 0.10 | 1015.4 | |
| 20260507034424 | -17 | 214 | 9.7 | 22.5 | 0.00 | 0.10 | 0.10 | 1015.5 | |
| 20260507033922 | -17 | 213 | 11.3 | 14.5 | 0.00 | 0.10 | 0.10 | 1015.5 | |
| 20260507033420 | -17 | 198 | 9.7 | 17.7 | 0.00 | 0.10 | 0.10 | 1015.6 | |
| 20260507032917 | -17 | 194 | 11.3 | 19.3 | 0.00 | 0.10 | 0.10 | 1015.7 | |
| 20260507032414 | -17 | 204 | 6.4 | 20.9 | 0.00 | 0.10 | 0.10 | 1015.5 | |
| 20260507031909 | -17 | 224 | 4.8 | 11.3 | 0.00 | 0.10 | 0.10 | 1015.6 | |
| 20260507031406 | -17 | 212 | 9.7 | 9.7 | 0.00 | 0.10 | 0.10 | 1015.5 | |
| 20260507030903 | -17 | 210 | 3.2 | 8.0 | 0.00 | 0.10 | 0.10 | 1015.5 | |
| 20260507030400 | -17 | 177 | 3.2 | 8.0 | 0.00 | 0.10 | 0.10 | 1015.5 | |
| 20260507025857 | -17 | 212 | 6.4 | 8.0 | 0.00 | 0.10 | 0.10 | 1015.5 | |
| 20260507025355 | -17 | 187 | 4.8 | 9.7 | 0.00 | 0.10 | 0.10 | 1015.5 | |
| 20260507024852 | -17 | 208 | 4.8 | 8.0 | 0.00 | 0.10 | 0.10 | 1015.3 | |
| 20260507024349 | -17 | 198 | 6.4 | 9.7 | 0.00 | 0.10 | 0.10 | 1015.3 | |
| 20260507023845 | -17 | 205 | 8.0 | 14.5 | 0.00 | 0.10 | 0.10 | 1015.0 | |
| 20260507023342 | -17 | 204 | 8.0 | 11.3 | 0.00 | 0.10 | 0.10 | 1015.1 | |
| 20260507022839 | -17 | 204 | 6.4 | 11.3 | 0.00 | 0.10 | 0.10 | 1014.8 | |
| 20260507022336 | -17 | 222 | 4.8 | 11.3 | 0.00 | 0.10 | 0.10 | 1015.0 | |
| 20260507021831 | -17 | 217 | 6.4 | 14.5 | 0.00 | 0.10 | 0.10 | 1015.0 | |
| 20260507021327 | -17 | 215 | 6.4 | 12.9 | 0.00 | 0.10 | 0.10 | 1014.8 | |
| 20260507020826 | -17 | 201 | 8.0 | 16.1 | 0.00 | 0.10 | 0.10 | 1014.7 | |
| 20260507020322 | -17 | 212 | 9.7 | 16.1 | 0.00 | 0.10 | 0.10 | 1014.6 | |
| 20260507015819 | -17 | 206 | 6.4 | 12.9 | 0.00 | 0.10 | 0.10 | 1014.5 | |
| 20260507015317 | -17 | 223 | 12.9 | 14.5 | 0.00 | 0.10 | 0.10 | 1014.5 | |
| 20260507014814 | -17 | 235 | 11.3 | 14.5 | 0.00 | 0.10 | 0.10 | 1014.7 | |
| 20260507014310 | -17 | 235 | 12.9 | 14.5 | 0.00 | 0.10 | 0.10 | 1014.7 | |
| 20260507013806 | -17 | 218 | 19.3 | 22.5 | 0.00 | 0.10 | 0.10 | 1014.6 | |
| 20260507013304 | -17 | 242 | 9.7 | 16.1 | 0.00 | 0.10 | 0.10 | 1014.7 | |
| 20260507012801 | -17 | 236 | 12.9 | 17.7 | 0.00 | 0.10 | 0.10 | 1014.4 | |
| 20260507012256 | -17 | 220 | 9.7 | 17.7 | 0.00 | 0.10 | 0.10 | 1014.4 | |
| 20260507011754 | -17 | 207 | 6.4 | 17.7 | 0.00 | 0.10 | 0.10 | 1014.7 | |
| 20260507011251 | -17 | 221 | 12.9 | 20.9 | 0.00 | 0.10 | 0.10 | 1014.3 | |
| 20260507010750 | -17 | 229 | 14.5 | 22.5 | 0.00 | 0.10 | 0.10 | 1014.0 | |
| 20260507010246 | -17 | 235 | 17.7 | 24.1 | 0.00 | 0.10 | 0.10 | 1014.2 | |
| 20260507005744 | -17 | 256 | 9.7 | 16.1 | 0.00 | 0.10 | 0.10 | 1014.3 | |
| 20260507005240 | -17 | 236 | 8.0 | 17.7 | 0.00 | 0.10 | 0.10 | 1013.9 | |
| 20260507004737 | -17 | 252 | 11.3 | 16.1 | 0.00 | 0.10 | 0.10 | 1014.0 | |
| 20260507004235 | -17 | 244 | 14.5 | 22.5 | 0.00 | 0.10 | 0.10 | 1014.0 | |
| 20260507003730 | -17 | 244 | 16.1 | 30.6 | 0.00 | 0.10 | 0.10 | 1014.2 | |
| 20260507003226 | -17 | 257 | 11.3 | 27.4 | 0.00 | 0.10 | 0.10 | 1013.8 | |
| 20260507002722 | -17 | 221 | 12.9 | 29.0 | 0.00 | 0.10 | 0.10 | 1013.9 | |
| 20260507002218 | -17 | 223 | 8.0 | 22.5 | 0.00 | 0.10 | 0.10 | 1014.2 | |
| 20260507001715 | -17 | 243 | 11.3 | 20.9 | 0.00 | 0.10 | 0.10 | 1014.2 | |
| 20260507001213 | -17 | 244 | 16.1 | 24.1 | 0.00 | 0.10 | 0.10 | 1013.9 | |
| 20260507000709 | -17 | 238 | 17.7 | 29.0 | 0.00 | 0.10 | 0.10 | 1013.9 | |
| 20260507000205 | -17 | 191 | 11.3 | 24.1 | 0.00 | 0.10 | 0.10 | 1014.2 | |
| 20260506235702 | -17 | 230 | 17.7 | 25.7 | 0.00 | 0.10 | 0.10 | 1014.3 | |
| 20260506235157 | -17 | 258 | 14.5 | 16.1 | 0.00 | 0.10 | 0.10 | 1014.0 | |
| 20260506234654 | -17 | 233 | 14.5 | 22.5 | 0.00 | 0.10 | 0.10 | 1014.2 | |
| 20260506234151 | -17 | 232 | 12.9 | 22.5 | 0.00 | 0.10 | 0.10 | 1014.2 | |
| 20260506233648 | -17 | 256 | 14.5 | 27.4 | 0.00 | 0.10 | 0.10 | 1014.2 | |
| 20260506233145 | -17 | 201 | 6.4 | 14.5 | 0.00 | 0.10 | 0.10 | 1014.2 | |
| 20260506232641 | -17 | 238 | 11.3 | 14.5 | 0.00 | 0.10 | 0.10 | 1014.2 | |
| 20260506232137 | -17 | 233 | 14.5 | 24.1 | 0.00 | 0.10 | 0.10 | 1014.2 | |
| 20260506231634 | -17 | 247 | 9.7 | 22.5 | 0.00 | 0.10 | 0.10 | 1014.2 | |
| 20260506231133 | -17 | 251 | 17.7 | 22.5 | 0.00 | 0.10 | 0.10 | 1014.2 | |
| 20260506230629 | -17 | 284 | 6.4 | 9.7 | 0.00 | 0.10 | 0.10 | 1014.3 | |
| 20260506230126 | -17 | 225 | 4.8 | 14.5 | 0.00 | 0.10 | 0.10 | 1014.2 | |
| 20260506225623 | -17 | 243 | 6.4 | 12.9 | 0.00 | 0.10 | 0.10 | 1014.2 | |
| 20260506225119 | 10 | 255 | 9.7 | 20.9 | 0.00 | 0.10 | 0.10 | 38 | 1013.8 |
| 20260506224616 | 12 | 245 | 12.9 | 20.9 | 0.00 | 0.10 | 0.10 | 36 | 1014.2 |
| 20260506224112 | 10 | 258 | 8.0 | 17.7 | 0.00 | 0.10 | 0.10 | 39 | 1014.0 |
| 20260506223608 | 10 | 227 | 8.0 | 19.3 | 0.00 | 0.10 | 0.10 | 38 | 1013.9 |
| 20260506223105 | 12 | 254 | 16.1 | 22.5 | 0.00 | 0.10 | 0.10 | 35 | 1014.3 |
| 20260506222602 | 11 | 294 | 20.9 | 24.1 | 0.00 | 0.10 | 0.10 | 37 | 1014.4 |
| 20260506222058 | 10 | 245 | 14.5 | 30.6 | 0.00 | 0.10 | 0.10 | 39 | 1014.3 |
| 20260506221556 | 11 | 259 | 14.5 | 30.6 | 0.00 | 0.10 | 0.10 | 36 | 1014.0 |
| 20260506221054 | 10 | 268 | 8.0 | 27.4 | 0.00 | 0.10 | 0.10 | 37 | 1014.2 |
| 20260506220549 | 10 | 262 | 14.5 | 16.1 | 0.00 | 0.10 | 0.10 | 38 | 1014.3 |
| 20260506220045 | 10 | 266 | 9.7 | 14.5 | 0.00 | 0.10 | 0.10 | 37 | 1014.3 |
| 20260506215542 | 11 | 236 | 12.9 | 22.5 | 0.00 | 0.10 | 0.10 | 37 | 1014.5 |
| 20260506215038 | 10 | 209 | 11.3 | 19.3 | 0.00 | 0.10 | 0.10 | 39 | 1014.5 |
| 20260506214535 | 10 | 269 | 12.9 | 29.0 | 0.00 | 0.10 | 0.10 | 37 | 1014.6 |
| 20260506214032 | 10 | 1 | 4.8 | 11.3 | 0.00 | 0.10 | 0.10 | 37 | 1014.6 |
| 20260506213530 | 11 | 302 | 12.9 | 20.9 | 0.00 | 0.10 | 0.10 | 35 | 1014.6 |
| 20260506213027 | 10 | 264 | 12.9 | 22.5 | 0.00 | 0.10 | 0.10 | 37 | 1014.8 |
| 20260506212524 | 11 | 235 | 11.3 | 19.3 | 0.00 | 0.10 | 0.10 | 37 | 1014.8 |
| 20260506212019 | 10 | 238 | 8.0 | 17.7 | 0.00 | 0.10 | 0.10 | 37 | 1015.0 |
| 20260506211515 | 10 | 237 | 14.5 | 25.7 | 0.00 | 0.10 | 0.10 | 37 | 1015.0 |
| 20260506211013 | 10 | 247 | 8.0 | 14.5 | 0.00 | 0.10 | 0.10 | 39 | 1015.3 |
| 20260506210509 | 10 | 277 | 14.5 | 16.1 | 0.00 | 0.10 | 0.10 | 37 | 1015.3 |
| 20260506210006 | 10 | 186 | 8.0 | 20.9 | 0.00 | 0.10 | 0.10 | 38 | 1015.4 |
| 20260506205502 | 10 | 229 | 12.9 | 22.5 | 0.00 | 0.10 | 0.10 | 38 | 1015.6 |
| 20260506204958 | 9 | 222 | 12.9 | 12.9 | 0.00 | 0.10 | 0.10 | 39 | 1015.5 |
| 20260506204456 | 10 | 245 | 12.9 | 24.1 | 0.00 | 0.10 | 0.10 | 37 | 1015.7 |
| 20260506203953 | 10 | 202 | 14.5 | 17.7 | 0.00 | 0.10 | 0.10 | 38 | 1015.9 |
| 20260506203450 | 10 | 328 | 4.8 | 9.7 | 0.00 | 0.10 | 0.10 | 40 | 1016.0 |
| 20260506202947 | 10 | 272 | 9.7 | 17.7 | 0.00 | 0.10 | 0.10 | 39 | 1016.0 |
| 20260506202444 | 9 | 251 | 6.4 | 14.5 | 0.00 | 0.10 | 0.10 | 39 | 1016.2 |
| 20260506201940 | 10 | 230 | 14.5 | 16.1 | 0.00 | 0.10 | 0.10 | 37 | 1016.1 |
| 20260506201438 | 10 | 24 | 1.6 | 12.9 | 0.00 | 0.10 | 0.10 | 41 | 1016.3 |
| 20260506200934 | 10 | 246 | 8.0 | 14.5 | 0.00 | 0.10 | 0.10 | 38 | 1016.3 |
| 20260506200431 | 10 | 248 | 8.0 | 11.3 | 0.00 | 0.10 | 0.10 | 39 | 1016.4 |
| 20260506195927 | 10 | 318 | 8.0 | 14.5 | 0.00 | 0.10 | 0.10 | 40 | 1016.6 |
| 20260506195424 | 9 | 289 | 11.3 | 14.5 | 0.00 | 0.10 | 0.10 | 41 | 1016.6 |
| 20260506194921 | 8 | 247 | 8.0 | 17.7 | 0.00 | 0.10 | 0.10 | 40 | 1016.6 |
| 20260506194418 | 8 | 331 | 6.4 | 14.5 | 0.00 | 0.10 | 0.10 | 41 | 1016.6 |
| 20260506193915 | 8 | 348 | 3.2 | 8.0 | 0.00 | 0.10 | 0.10 | 40 | 1016.8 |
| 20260506193412 | 8 | 287 | 9.7 | 19.3 | 0.00 | 0.10 | 0.10 | 41 | 1016.6 |
| 20260506192908 | 8 | 303 | 11.3 | 17.7 | 0.00 | 0.10 | 0.10 | 42 | 1016.6 |
| 20260506192406 | 8 | 8 | 4.8 | 6.4 | 0.00 | 0.10 | 0.10 | 39 | 1017.0 |